This demonstration page uses our WeatherBlox Daily Observations layout. Learn more.

Left ArrowRight Arrow

Hourly Observations for May 5, 2022

Temp ( °F °C ) Dew Point ( °F °C ) Humidity (%) Winds ( mph kmh ) Pressure ( in mb ) Visibility ( mi km ) Precip ( " mm )
12:43 am 00:43 Cloudy 52 11 46 8 82 82 Calm 30.09 1019 10 16 0.00 0.00
12:56 am 00:56 Mostly Cloudy 51 10.5 47 8.6 88 88 NNW 3 6 30.08 1019 10 16 0.00 0.00
1:56 am 01:56 Mostly Cloudy 53 11.4 46 7.9 79 79 NE 6 9 30.06 1018 10 16 0.00 0.00
2:56 am 02:56 Cloudy 52 11.3 46 8 80 80 NNE 7 11 30.03 1017 10 16 0.00 0.00
3:56 am 03:56 Cloudy 52 11.1 47 8.3 83 83 NNE 5 7 30.03 1017 10 16 0.00 0.00
4:56 am 04:56 Cloudy 52 11.2 47 8.2 82 82 NNE 5 7 30.01 1016 10 16 0.00 0.00
5:56 am 05:56 Cloudy 52 11.1 47 8.3 83 83 N 5 7 30.01 1016 10 16 0.00 0.00
6:56 am 06:56 Cloudy 51 10.4 48 8.8 90 90 N 7 11 30.02 1017 10 16 0.00 0.00
7:56 am 07:56 Cloudy 51 10.5 48 8.9 90 90 NNE 7 11 30.01 1016 10 16 0.00 0.00
8:56 am 08:56 Cloudy 53 11.4 48 9.1 86 86 NE 6 9 30.01 1016 10 16 0.00 0.00
9:56 am 09:56 Cloudy 53 11.7 49 9.3 85 85 ENE 9 15 30.01 1016 10 16 0.00 0.00
10:56 am 10:56 Cloudy 53 11.9 49 9.6 86 86 E 5 7 30.00 1016 7 11 0.00 0.00
11:56 am 11:56 Cloudy 55 12.6 50 9.8 83 83 ENE 8 13 29.98 1015 8 13 0.00 0.00
12:56 pm 12:56 Cloudy 55 12.8 50 10 83 83 ENE 5 7 29.98 1015 10 16 0.00 0.00
1:56 pm 13:56 Cloudy 56 13.3 50 9.9 80 80 NNE 6 9 29.95 1014 10 16 0.00 0.00
2:56 pm 14:56 Cloudy 57 13.8 50 10.2 79 79 NE 9 15 29.92 1013 10 16 0.00 0.00
3:56 pm 15:56 Cloudy 57 14.1 51 10.3 78 78 ENE 8 13 29.90 1013 10 16 0.00 0.00
4:56 pm 16:56 undefined 58 14.2 50 10 76 76 ENE 8 13 29.90 1013 10 16 0.00 0.00
6:56 pm 18:56 Cloudy 56 13.4 52 10.9 85 85 ENE 5 7 29.91 1013 10 16 0.00 0.00
7:56 pm 19:56 Cloudy 56 13.1 51 10.6 85 85 E 6 9 29.91 1013 10 16 0.00 0.00
8:56 pm 20:56 Cloudy 56 13.2 51 10.4 83 83 E 5 7 29.91 1013 10 16 0.00 0.00
9:56 pm 21:56 Mostly Cloudy 55 13 50 10 82 82 E 6 9 29.91 1013 10 16 0.00 0.00
10:56 pm 22:56 Cloudy 56 13.1 50 9.9 81 81 ENE 6 9 29.93 1013 10 16 0.00 0.00
11:56 pm 23:56 Cloudy 56 13.1 50 10.1 82 82 NNE 5 7 29.92 1013 10 16 0.00 0.00

Powered by AerisWeather